Other Public Products
Issued by NWS Grand Forks, ND

Home | Current Version | Previous Version | Text Only | Print | Product List | Glossary On
Versions: 1 2 3 4 5 6 7 8 9 10 11 12 13 14 15 16 17 18 19 20 21 22 23 24 25 26 27 28 29 30 31 32 33 34 35 36 37 38 39 40 41 42 43 44 45 46 47 48 49 50
000
FPUS83 KFGF 180231
OPUFGF
PRAIRIE TO PINES WEATHER ROUNDUP
NATIONAL WEATHER SERVICE EASTERN NORTH DAKOTA/GRAND FORKS ND
800 PM CST SUN DEC 17 2017

 **SATELLITE DATA USED TO AUGMENT SKY COVER AT AUTOMATED STATIONS**
 *****  WEATHER ACROSS EASTERN NORTH DAKOTA  *****

CITY           SKY/WX    TMP DP  RH WIND       PRES   REMARKS
GRAND FORKS    MOCLDY    21  20  96 S14       29.80S FOG     WCI   8
GRND FORKS AFB MOCLDY    21  21 100 S10       29.78F WCI  10
GRND FORKS NWS   N/A     21 N/A N/A S9          N/A  WCI  11
BUXTON           N/A     20  20  99 S6          N/A  WCI  13
DEVILS LAKE    FAIR      32  24  72 S13       29.72F WCI  22
FARGO          FOG       31  30  96 S10       29.85F VSB 1/2 WCI  22
WAHPETON ARPT  FAIR      28  27  93 SE7       29.88F WCI  21
$$

 *****  WEATHER ACROSS CENTRAL AND WESTERN NORTH DAKOTA  *****

CITY           SKY/WX    TMP DP  RH WIND       PRES   REMARKS
JAMESTOWN      FAIR      29  23  78 S9        29.79F WCI  20
BISMARCK       FAIR      36  21  54 SW9       29.77F
MINOT          CLOUDY    36  26  67 SW10      29.67S
MINOT AFB      MOCLDY    34  23  63 SW14      29.65F WCI  25
GARRISON         N/A     36  26  67 W14       29.70S
WILLISTON      MOCLDY    31  20  63 SW6       29.70S
DICKINSON      CLOUDY    35  20  54 W15       29.71S
HETTINGER      CLOUDY    33  22  63 W8        29.78S
$$

 *****  OTHER OBSERVATIONS NORTHEAST NORTH DAKOTA  *****

CITY           SKY/WX    TMP DP  RH WIND       PRES   REMARKS
WALHALLA       FAIR      30  23  74 S15       29.70F WCI  19
LANGDON        NOT AVBL
CAVALIER       FAIR      18  16  93 S9        29.73F WCI   6
GRAFTON        NOT AVBL
CANDO          FAIR      30  28  93 S15       29.70F WCI  19
FORT TOTTEN      N/A     32  23  69 S9        29.95S WCI  24
ROLLA          MOCLDY    28  25  86 S8        29.64F WCI  20
RUGBY          NOT AVBL
 ***** THE ABOVE OBSERVATIONS ARE NON NWS ARE NOT QUALITY
        CONTROLLED AND MAY MIS-REPORT RAIN FOR SNOW...
$$

 *****  OTHER OBSERVATIONS SOUTHEAST NORTH DAKOTA *****

CITY           SKY/WX    TMP DP  RH WIND       PRES   REMARKS
COOPERSTOWN    FAIR      27  25  93 S14       29.79S WCI  15
VALLEY CITY    NOT AVBL
OAKES            N/A     25  25 100 S9        29.85R WCI  15
GWINNER          N/A     27  27 100 SW12      29.85S WCI  16
SHEYENNE NWR     N/A     26  26 100 S7        29.95S WCI  18
BUFFALO          N/A     29  22  78 E9          N/A  WCI  20
WYNDMERE       NOT AVBL
 ***** THE ABOVE OBSERVATIONS ARE NON NWS ARE NOT QUALITY
       CONTROLLED AND MAY MIS-REPORT RAIN FOR SNOW...
$$

  *****  WEATHER ACROSS NORTHERN MINNESOTA  *****

CITY           SKY/WX    TMP DP  RH WIND       PRES   REMARKS
FLAG ISLAND    FAIR      10   9  92 S8        29.76F WCI  -1
WARROAD        FAIR      18  14  86 CALM      29.77F
ROSEAU         FAIR      18  12  79 S10       29.77F WCI   6
HALLOCK        FAIR      21  19  93 S17       29.76S FOG     WCI   7
THF RVR FALLS  FOG       22  22 100 S10       29.82F VSB 1/2 WCI  11
HALSTAD        NOT AVBL
FOSSTON        FOG       21  21 100 S12       29.83F VSB 1/2 WCI   9
BAUDETTE       MOCLDY    20  20 100 S12       29.79F FOG     WCI   8
WASKISH        FAIR      25  23  93 S7        29.82F WCI  17
CROOKSTON      FOG       27  27 100 S15       29.83F VSB 1/2 WCI  15
$$
  *****  WEATHER ACROSS CENTRAL AND WEST MINNESOTA  *****

CITY           SKY/WX    TMP DP  RH WIND       PRES   REMARKS
BEMIDJI        CLOUDY    24  23  98 S8        29.85S FOG     WCI  15
PARK RAPIDS    CLOUDY    27  24  89 S12       29.87F WCI  17
WADENA         FOG       27  27 100 S6        29.89F VSB 1   WCI  20
DETROIT LAKES  CLOUDY    28  27  93 S14       29.87F FOG     WCI  17
MOORHEAD       FOG       28  28 100 S14       29.87S VSB 1/2 WCI  17
FERGUS FALLS   FAIR      27  27 100 SE7       29.92F FOG     WCI  19
ELBOW LAKE     FAIR      22  22  99 E7        29.90F FOG     WCI  14
MORRIS MN      CLOUDY    28  27  93 SE7       29.90S FOG     WCI  21
STAPLES        FOG       25  25 100 S6        29.90F VSB 1/2 WCI  18
WHEATON        MOCLDY    28  27  93 SE8       29.91F WCI  20
$$
  *****  WEATHER ELSEWHERE ACROSS MINNESOTA  *****

CITY           SKY/WX    TMP DP  RH WIND       PRES   REMARKS
DULUTH         CLOUDY    24  21  88 SW6       29.90F WCI  17
INTRNTL FALLS  CLOUDY    27  24  89 S7        29.83F FOG     WCI  19
ELY            CLOUDY    21  21 100 SW7       29.87F WCI  13
CLOQUET        CLOUDY    25  19  80 SW6       29.91S WCI  18
BRAINERD       CLOUDY    26  21  81 S6        29.91F WCI  19
HIBBING        CLOUDY    23  22  96 SW5       29.88F WCI  17
ALEXANDRIA     CLOUDY    26  25  96 S6        29.91F WCI  19
SAINT CLOUD    CLOUDY    23  21  92 SE5       29.95F WCI  17
MINNEAPOLIS    CLOUDY    27  25  92 VRB3      29.99R FOG
$$

  *****  WEATHER ACROSS SOUTH DAKOTA  *****

CITY           SKY/WX    TMP DP  RH WIND       PRES   REMARKS
SIOUX FALLS    MOCLDY    32  29  88 SW3       29.95S
BROOKINGS      CLOUDY    33  27  78 S7        29.92F
WATERTOWN      CLOUDY    32  31  96 S7        29.88F
HURON          CLOUDY    38  32  79 MISG      29.90S
SISSETON         N/A     32  30  92 S7        29.88S
ABERDEEN       CLOUDY    33  29  85 S9        29.87F
MITCHELL       CLOUDY    37  29  72 S7        29.94S
PIERRE         FAIR      32  29  88 S7        29.86S
MOBRIDGE       FAIR      31  26  82 S3        29.81S
RAPID CITY     MOCLDY    30  22  72 W6        29.84R WCI  24
$$

  *****  SOME WEATHER IN NEARBY STATES *****

CITY           SKY/WX    TMP DP  RH WIND       PRES   REMARKS
GLASGOW MT     MOCLDY    32  23  69 W7        29.70F
GREAT FALLS MT MOCLDY    36  20  52 SW32G43   29.80F
CHEYENNE WY    FAIR      29  17  61 W6        29.91R WCI  23
SCOTTSBLUFF NE FAIR      31  17  56 W7        29.90R WCI  24
OMAHA NE       FAIR      29  23  78 CALM      30.02R
DES MOINES IA  CLOUDY    36  31  82 W7        29.99R
DAVENPORT IA   CLOUDY    39  37  92 CALM      30.01S FOG
CHICAGO IL     CLOUDY    42  30  62 SW3       29.99S
EAU CLAIRE WI  CLOUDY    28  26  92 S5        29.98R FOG     WCI  23
LA CROSSE WI   CLOUDY    32  29  88 CALM      29.99S FOG
$$

  *****  SOME NATIONAL WEATHER *****

CITY           SKY/WX    TMP DP  RH WIND       PRES   REMARKS
LA GUARDIA NY  CLOUDY    35  25  66 NE7       30.25S
RALEIGH NC     CLOUDY    45  40  82 S5        30.21F
ATLANTA GA     DRIZZLE   46  45  96 E5        30.18F
NEW ORLEANS LA CLOUDY    67  67 100 S6        30.11R FOG
OKLAHOMA CITY  CLOUDY    39  38  96 S7        30.07R
ALBUQUERQUE NM FAIR      41  27  57 SE5       30.06R
SALT LAKE CITY FAIR      30  24  78 CALM      30.24R
LOS ANGELES CA FAIR      66  22  18 CALM      29.97R
BOISE ID       CLOUDY    34  22  61 SW3       30.24R
SEATTLE WA     CLOUDY    49  43  80 S18G31    30.01S
$$

*** WEATHER ACROSS MANITOBA...SASKATCHEWAN AND ONTARIO ***
                ***ONTARIO***

CITY           SKY/WX    TMP DP  RH WIND       PRES   REMARKS
GERALDTON      FRZ DRZL  27  23  86 SW16      29.79F WCI  14
THUNDER BAY    CLOUDY    28  23  80 W8        29.89F WCI  20
SIOUX LOOKOUT  FLURRIES  25  23  93 SW7       29.76F WCI  17
TORONTO        CLOUDY    19  16  86 NE8       30.11F WCI   9
BIG TROUT LK   CLOUDY    19  18  93 S8        29.56F WCI   9
PICKLE LAKE    FLURRIES  23  23 100 SW13G18   29.68F WCI  11
DRYDEN         CLOUDY    23  23 100 S10       29.76F WCI  12
KENORA         CLEAR     18  16  93 S10       29.74F WCI   6
$$
                *** MANITOBA***

CITY           SKY/WX    TMP DP  RH WIND       PRES   REMARKS
BRANDON        CLOUDY    30  23  74 SW15G22   29.59F WCI  19
DAUPHIN        CLOUDY    32  25  74 SW18G24   29.49F WCI  20
ISLAND LAKE    NOT AVBL
PILOT MOUND      N/A     25  21  86 S16         N/A  WCI  12
THE PAS        PTCLDY    27  21  80 SW12G18   29.26F WCI  16
THOMPSON       CLOUDY    19  18  93 S3        29.22F
WINNIPEG       MOCLDY    19  16  86 S18       29.68F WCI   4
LYNN LAKE      LGT SNOW  19  19 100 S5        29.07F WCI  13
CHURCHILL      CRYSTALS   3   0  85 SE9       29.42F WCI -11
GILLAM         CLOUDY    12   9  85 SE7       29.36  WCI   2
$$
                ***SASKATCHEWAN***

CITY           SKY/WX    TMP DP  RH WIND       PRES   REMARKS
ESTEVAN        PTCLDY    28  21  74 SW10      29.62F WCI  19
KINDERSLEY     CLOUDY    27  21  80 W13       29.55R WCI  16
LLOYDMINSTER   CLEAR     32  23  69 W17G24    29.44R WCI  21
PRINCE ALBERT  PTCLDY    27  19  74 W9        29.37F WCI  17
REGINA         MOCLDY    30  27  86 SW9       29.56S WCI  22
YORKTON        CLOUDY    28  21  74 SW17G24   29.45F WC


USA.gov is the U.S. government's official web portal to all federal, state and local government web resources and services.